Kahului, HI

3:26 AM HST on February 08, 2016 (GMT -1000)
Kahului

Weather History for PHOG - May, 2014

Change the Weather History Date:

Thursday, May 1, 2014

  Actual Average Record
Temperature  
Mean Temperature 75 °F 75 °F  
Max Temperature 81 °F 83 °F 89 °F (2013)
Min Temperature 69 °F 66 °F 60 °F (1992)
Degree Days  
Heating Degree Days 0 0  
Month to date heating degree days 0 0  
Since 1 July heating degree days 0 0  
Cooling Degree Days 10 10  
Month to date cooling degree days 10 10  
Year to date cooling degree days 1120 936  
Growing Degree Days 24 (Base 50)    
Moisture  
Dew Point 64 °F    
Average Humidity 71    
Maximum Humidity 84    
Minimum Humidity 58    
Precipitation  
Precipitation T in 0.03 in 0.39 in (1981)
Month to date precipitation T 0.03  
Year to date precipitation 12.93 8.79  
Snow  
Snow 0.00 in - - ()
Month to date snowfall 0.0  
Since 1 July snowfall 0.0  
Snow Depth 0.00 in    
Sea Level Pressure  
Sea Level Pressure 30.04 in    
Wind  
Wind Speed 13 mph (NE)    
Max Wind Speed 21 mph    
Max Gust Speed 29 mph    
Visibility 10 miles    
Events Rain    
T = Trace of Precipitation, MM = Missing Value Source: NWS Daily Summary

Daily Weather History Graph

Daily Weather History Graph

Search for Another Location

Airport or City:

Trip Planner

Search our weather history database for the weather conditions in past years. The results will help you decide how hot, cold, wet, or windy it might be!

Date:

Astronomy

May. 01, 2014 Rise Set
Actual Time 5:55 AM HST 6:50 PM HST
Civil Twilight 5:32 AM HST 7:13 PM HST
Nautical Twilight 5:04 AM HST 7:41 PM HST
Astronomical Twilight 4:36 AM HST 8:09 PM HST
Moon 7:59 AM HST (5/1) 9:25 PM HST (5/1)
Length of Visible Light 13h 41m
Length of Day
12h 55m
Waxing Crescent, 8% of the Moon is Illuminated
May 1
Waxing Crescent
May 6
First Quarter
May 14
Full
May 21
Last Quarter
May 28
New

Hourly Weather History & Observations

Time (HST) Temp. Dew Point Humidity Pressure Visibility Wind Dir Wind Speed Gust Speed Precip Events Conditions
12:33 AM 71.6 °F 64.4 °F 78% 30.04 in 10.0 mi NE 9.2 mph - 0.00 in   Overcast
12:54 AM 70.0 °F 64.9 °F 84% 30.05 in 10.0 mi ENE 9.2 mph - 0.00 in   Overcast
1:02 AM 69.8 °F 64.4 °F 83% 30.03 in 10.0 mi ENE 6.9 mph - N/A   Overcast
1:54 AM 69.1 °F 64.0 °F 84% 30.03 in 10.0 mi ENE 9.2 mph - N/A   Overcast
2:54 AM 69.1 °F 64.0 °F 84% 30.03 in 10.0 mi ENE 9.2 mph - N/A   Overcast
3:54 AM 69.1 °F 64.0 °F 84% 30.01 in 10.0 mi ENE 6.9 mph - N/A   Overcast
4:54 AM 69.1 °F 64.0 °F 84% 30.02 in 10.0 mi NE 8.1 mph - N/A   Overcast
5:54 AM 69.1 °F 64.0 °F 84% 30.03 in 10.0 mi NE 10.4 mph - N/A   Scattered Clouds
6:54 AM 70.0 °F 64.0 °F 81% 30.05 in 10.0 mi NE 13.8 mph - N/A   Mostly Cloudy
7:54 AM 72.0 °F 64.0 °F 76% 30.06 in 10.0 mi NE 12.7 mph - N/A   Scattered Clouds
8:54 AM 73.9 °F 64.9 °F 73% 30.06 in 10.0 mi NE 12.7 mph - N/A   Scattered Clouds
9:54 AM 77.0 °F 64.9 °F 66% 30.07 in 10.0 mi NNE 17.3 mph - N/A   Scattered Clouds
10:54 AM 77.0 °F 64.0 °F 64% 30.07 in 10.0 mi NNE 13.8 mph - N/A   Scattered Clouds
11:54 AM 78.1 °F 64.0 °F 62% 30.05 in 10.0 mi NNE 18.4 mph - N/A   Mostly Cloudy
12:54 PM 79.0 °F 63.0 °F 58% 30.04 in 10.0 mi NE 19.6 mph 25.3 mph N/A   Mostly Cloudy
1:54 PM 79.0 °F 63.0 °F 58% 30.02 in 10.0 mi NE 18.4 mph 24.2 mph N/A   Mostly Cloudy
2:54 PM 77.0 °F 63.0 °F 62% 30.01 in 10.0 mi NE 13.8 mph 20.7 mph N/A   Scattered Clouds
3:54 PM 75.9 °F 63.0 °F 64% 29.99 in 10.0 mi ENE 17.3 mph 28.8 mph N/A   Mostly Cloudy
4:54 PM 75.0 °F 64.0 °F 69% 30.00 in 10.0 mi NE 13.8 mph 23.0 mph N/A   Mostly Cloudy
5:54 PM 75.0 °F 64.0 °F 69% 30.01 in 10.0 mi NE 15.0 mph 24.2 mph N/A   Mostly Cloudy
6:54 PM 73.0 °F 64.9 °F 76% 30.03 in 10.0 mi NE 12.7 mph - N/A   Mostly Cloudy
7:54 PM 73.0 °F 64.9 °F 76% 30.04 in 10.0 mi NE 13.8 mph - N/A   Mostly Cloudy
8:54 PM 73.0 °F 64.0 °F 73% 30.06 in 10.0 mi NE 11.5 mph - N/A   Mostly Cloudy
9:54 PM 73.0 °F 64.0 °F 73% 30.07 in 10.0 mi East 8.1 mph - N/A   Mostly Cloudy
10:54 PM 71.1 °F 66.0 °F 84% 30.07 in 6.0 mi NNE 4.6 mph - 0.03 in Rain Heavy Rain
11:54 PM 71.1 °F 66.9 °F 87% 30.06 in 10.0 mi East 5.8 mph - 0.02 in   Overcast